Stillwater, OK

10:30 AM CDT on April 23, 2018 (GMT -0500)
Stillwater Municipal

Weather History for KSWO - September, 2013

Change the Weather History Date:

Sunday, September 22, 2013

  Actual Average Record
Temperature  
Mean Temperature 65 °F -  
Max Temperature 86 °F 80 °F 95 °F (2000)
Min Temperature 46 °F 55 °F 42 °F (1999)
Growing Degree Days 15 (Base 50)    
Moisture  
Dew Point 48 °F    
Average Humidity 63    
Maximum Humidity 100    
Minimum Humidity 26    
Precipitation  
Precipitation 0.00 in - - ()
Sea Level Pressure  
Sea Level Pressure 29.88 in    
Wind  
Wind Speed 3 mph (SE)    
Max Wind Speed 13 mph    
Max Gust Speed 16 mph    
Visibility 10 miles    
Events      
Averages and records for this station are not official NWS values.
T = Trace of Precipitation, MM = Missing Value Source: NWS Daily Summary

Daily Weather History Graph

Daily Weather History Graph

Search for Another Location

Airport or City:

Astronomy

Sep. 22, 2013 Rise Set
Actual Time 7:16 AM CDT 7:24 PM CDT
Civil Twilight 6:50 AM CDT 7:50 PM CDT
Nautical Twilight 6:20 AM CDT 8:20 PM CDT
Astronomical Twilight 5:50 AM CDT 8:50 PM CDT
Moon 9:23 PM CDT (9/22) 10:30 AM CDT (9/22)
Length of Visible Light 12h 59m
Length of Day
12h 08m
Waning Gibbous, 88% of the Moon is Illuminated
Sep 22
Waning Gibbous
Sep 26
Last Quarter
Oct 4
New
Oct 11
First Quarter
Oct 18
Full

Hourly Weather History & Observations

Time (CDT) Temp. Dew Point Humidity Pressure Visibility Wind Dir Wind Speed Gust Speed Precip Events Conditions
12:53 AM 51.1 °F 48.9 °F 92% 29.92 in 10.0 mi Calm Calm - N/A   Clear
1:53 AM 50.0 °F 48.0 °F 93% 29.92 in 10.0 mi Calm Calm - N/A   Clear
2:53 AM 48.9 °F 46.9 °F 93% 29.91 in 10.0 mi Calm Calm - N/A   Clear
3:53 AM 48.9 °F 46.9 °F 93% 29.91 in 10.0 mi Calm Calm - N/A   Clear
4:53 AM 46.0 °F 45.0 °F 96% 29.91 in 6.0 mi Calm Calm - N/A   Clear
5:02 AM 46.4 °F 46.4 °F 100% 29.93 in 2.5 mi Calm Calm - N/A   Clear
5:09 AM 46.4 °F 44.6 °F 93% 29.93 in 9.0 mi Calm Calm - N/A   Clear
5:53 AM 46.9 °F 46.0 °F 97% 29.91 in 10.0 mi Calm Calm - N/A   Clear
6:53 AM 48.9 °F 46.0 °F 90% 29.92 in 10.0 mi Calm Calm - N/A   Clear
7:53 AM 52.0 °F 50.0 °F 93% 29.93 in 10.0 mi East 4.6 mph - N/A   Clear
8:53 AM 61.0 °F 54.0 °F 78% 29.94 in 10.0 mi ESE 6.9 mph - N/A   Clear
9:53 AM 70.0 °F 51.1 °F 51% 29.95 in 10.0 mi SSE 10.4 mph - N/A   Clear
10:53 AM 75.9 °F 50.0 °F 40% 29.95 in 10.0 mi SE 11.5 mph - N/A   Clear
11:53 AM 78.1 °F 48.0 °F 35% 29.94 in 10.0 mi SE 4.6 mph - N/A   Clear
12:53 PM 79.0 °F 46.9 °F 32% 29.91 in 10.0 mi SSE 9.2 mph - N/A   Clear
1:53 PM 82.9 °F 48.0 °F 29% 29.89 in 10.0 mi Variable 4.6 mph - N/A   Clear
2:53 PM 84.0 °F 46.0 °F 26% 29.85 in 10.0 mi ESE 6.9 mph - N/A   Clear
3:53 PM 84.9 °F 46.9 °F 27% 29.83 in 10.0 mi SSE 9.2 mph 16.1 mph N/A   Clear
4:53 PM 82.9 °F 46.9 °F 28% 29.82 in 10.0 mi SSE 10.4 mph - N/A   Clear
5:53 PM 81.0 °F 45.0 °F 28% 29.81 in 10.0 mi SSE 12.7 mph - N/A   Clear
6:53 PM 75.9 °F 46.0 °F 35% 29.80 in 10.0 mi SSE 9.2 mph - N/A   Clear
7:53 PM 71.1 °F 48.9 °F 45% 29.81 in 10.0 mi SE 6.9 mph - N/A   Clear
8:53 PM 66.9 °F 48.9 °F 52% 29.81 in 10.0 mi ESE 5.8 mph - N/A   Clear
9:53 PM 64.0 °F 50.0 °F 60% 29.82 in 10.0 mi ESE 6.9 mph - N/A   Clear
10:53 PM 64.0 °F 50.0 °F 60% 29.82 in 10.0 mi SE 9.2 mph - N/A   Clear
11:53 PM 62.1 °F 50.0 °F 65% 29.82 in 10.0 mi SE 10.4 mph - N/A   Clear